Location: Albany
(35.0170°S, 117.8920°E)
Time: 02:37:51
(UTC+08:00)

N. Korean satellite - Pass Details

Date: 29 November 2020
Orbit: 453 x 502 km, 97.2° (Epoch: 16 January)

Event Time Altitude Azimuth Distance (km) Brightness Sun altitude
Rises 03:58:50 0° 49° (NE) 2,599 10.5 -9.5°
Reaches altitude 10° 04:01:29 10° 70° (ENE) 1,724 9.9 -9.0°
Maximum altitude 04:03:52 16° 110° (ESE) 1,373 10.1 -8.6°
Drops below altitude 10° 04:06:15 10° 150° (SSE) 1,733 10.5 -8.2°
Sets 04:08:56 0° 171° (S) 2,621 11.0 -7.8°
